Find Starlink 32462

NORAD ID: 62129 Int'l Des: 2024-222 Owner: SPXS Country: US Constellation: starlink operational
LEOCIRCULAR

实时位置

正在加载3D地球...

关于 Starlink 32462

正在加载描述...

即将过境

Passes for default location (London). Set your location on the main map for personalized predictions.

高度历史

Loading altitude history...

两行轨道根数

1 62129U 24222R 26126.46653615 .00017612 00000-0 64769-3 0 9997
2 62129 42.9999 166.5636 0001426 283.6210 76.4482 15.27596360 81624
Epoch: May 6, 2026 • Age: 5 hours

当前状态

高度 486.2 km
速度 7.63 km/s
星下点 38.93°N, 175.36°E
发射日期 Nov 27, 2024
运行时间 1.4 years
类型 internet

技术详情

分类 Payload
质量 730.00 kg
干质量 700.00 kg
总质量 730.00 kg
长度 0.30 m
直径 4.10 m
跨度 29.00 m
形状 Box + pan
制造商 SPXS
平台类型 Starlink V2M
阶段状态 In Orbit
所有者/国家 SPXS/US

Most Searched